Wetbulb
74.68 73.36 72.84 70.03 57.85 55.75 52.99 56.79 60.66 58.17 58.95 62.17 63.14 61.52 59.69 61.09 58.24 52.10 67.21 69.28 70.64 70.78 73.62 75.58 77.28 76.82 76.50 76.44 76.68 77.09 77.22 77.17 77.11 77.11 77.20 76.76 76.74 76.74 76.82 76.79 76.90 76.73 76.50 76.43 76.63 76.24 75.38 76.51 76.16
74.22 72.52 72.49 68.58 53.82 50.05 52.63 60.17 58.34 59.55 62.33 62.73 63.39 61.40 59.94 59.37 64.11 64.27 65.69 69.96 71.60 72.33 73.62 75.13 77.63 77.52 76.41 76.42 76.88 77.17 76.98 77.20 77.14 76.94 77.14 76.67 76.92 76.76 76.77 77.05 77.26 76.92 76.63 76.58 76.92 76.72 76.73 76.68 76.02
73.74 73.92 68.15 61.39 52.93 51.05 53.54 60.99 60.53 62.60 63.39 62.39 61.45 63.94 61.25 60.08 64.75 65.73 68.05 70.97 71.80 72.29 74.35 75.66 77.70 77.38 76.65 77.03 76.98 77.11 77.04 77.17 77.09 76.97 76.83 76.64 77.19 76.94 76.81 76.78 77.20 77.16 76.93 76.53 76.76 76.63 76.52 76.40 76.08
72.57 72.54 69.27 53.60 52.69 57.34 59.58 61.41 62.13 61.74 63.17 64.81 63.12 58.83 62.39 65.55 65.33 68.22 70.41 71.62 71.23 72.32 74.61 76.86 77.31 76.93 77.07 76.93 77.15 77.12 76.81 76.68 76.71 76.99 77.10 76.66 77.19 76.82 76.70 76.92 76.65 76.89 76.64 76.81 76.93 76.29 75.55 75.50 75.53
73.89 69.04 55.52 53.59 55.60 61.12 62.91 64.28 64.34 62.38 63.18 62.92 62.32 58.66 60.52 65.74 68.66 69.53 70.08 71.29 70.43 72.24 74.82 75.61 78.19 77.18 77.26 77.18 77.10 77.12 76.88 76.68 76.37 76.23 76.73 76.78 76.96 76.62 76.81 76.78 76.71 76.85 76.52 76.75 76.68 76.14 75.87 75.74 75.68
68.76 64.83 52.66 51.91 57.86 61.74 63.90 65.47 64.76 63.47 60.96 60.94 60.41 61.25 60.59 66.58 68.01 68.91 69.69 69.63 71.78 72.82 74.43 75.65 77.41 77.68 77.36 77.27 77.16 76.93 76.40 76.29 76.12 76.08 76.49 77.11 76.48 76.82 76.56 76.79 76.58 76.73 76.69 76.38 76.02 76.09 75.65 75.21 74.91
66.53 58.81 53.48 56.57 58.09 60.39 63.18 66.56 63.75 62.59 61.11 60.56 65.37 60.02 61.32 63.96 67.08 68.55 69.20 69.69 72.48 73.33 73.79 74.12 74.93 76.33 77.79 77.19 76.92 76.75 76.58 76.37 76.04 75.88 75.89 75.67 76.37 76.29 76.37 76.46 76.43 76.69 76.58 76.49 75.91 75.76 75.97 75.21 74.64
69.57 59.12 55.61 55.41 57.35 58.46 64.52 65.15 66.35 64.43 63.68 67.75 65.68 58.55 58.24 63.48 67.06 68.94 70.79 71.77 72.23 72.64 73.04 73.14 73.80 74.37 73.96 74.48 77.03 76.84 76.85 76.15 76.43 75.69 75.69 75.89 75.53 75.86 76.63 76.34 76.62 76.47 76.13 76.33 76.22 75.74 75.62 75.42 74.83
70.07 55.14 53.22 56.69 57.52 59.46 65.27 60.89 65.30 68.19 65.21 66.55 67.41 64.18 64.17 66.14 68.36 68.76 68.42 69.77 70.45 72.04 72.18 72.45 72.93 72.81 73.80 74.64 74.96 76.85 76.82 76.21 76.58 75.64 75.75 75.73 71.59 70.53 71.32 74.23 75.43 76.22 76.39 76.27 76.02 76.21 75.75 75.23 75.18
60.55 54.31 57.33 61.95 61.39 60.74 64.30 63.30 64.74 64.54 64.27 64.02 64.35 64.73 65.65 67.07 67.26 67.39 66.03 66.82 68.58 69.39 71.47 72.06 72.40 72.47 72.98 75.02 73.64 73.55 73.59 73.67 73.29 72.83 72.19 72.08 71.34 70.43 71.95 73.06 74.12 75.63 75.97 75.75 75.97 76.59 76.37 75.68 72.46
60.43 57.08 62.02 63.69 63.53 63.96 63.57 64.41 66.18 63.46 61.88 63.89 62.47 62.52 64.45 65.92 66.99 67.51 66.68 66.66 68.43 69.00 70.61 71.55 72.60 72.72 72.08 72.65 72.25 72.38 72.49 72.16 72.11 72.47 72.01 71.45 71.76 71.57 70.61 69.70 71.12 70.66 74.13 73.23 74.08 73.88 72.86 72.42 71.73
59.79 62.92 63.61 64.98 66.09 64.89 63.11 65.96 64.10 64.73 64.35 66.54 66.18 64.86 64.39 65.38 66.70 67.62 67.45 65.92 67.95 67.79 69.78 70.92 72.36 72.34 71.69 72.00 71.26 70.79 70.79 71.85 72.34 72.22 71.73 71.28 70.39 70.56 69.51 67.90 69.31 69.16 69.74 69.92 70.01 69.86 71.12 70.88 71.69
60.22 61.77 63.00 63.94 64.03 64.49 65.43 64.19 63.99 64.42 67.09 67.65 67.47 66.60 65.64 66.66 67.38 68.60 69.13 68.96 67.62 67.49 69.64 70.03 70.87 71.01 71.42 71.21 70.43 69.68 69.54 71.15 72.60 72.58 72.39 72.25 71.17 70.30 70.21 69.40 69.14 69.53 69.19 69.11 68.50 68.75 69.98 70.40 69.51
61.88 63.11 62.29 63.36 63.04 62.83 63.78 63.89 64.94 65.00 67.61 67.28 67.16 66.10 66.53 67.27 67.89 68.06 68.13 68.44 68.11 67.78 67.69 69.53 69.93 70.31 71.09 71.19 69.41 69.51 69.98 70.60 71.07 71.28 71.39 71.28 71.57 70.24 70.41 70.33 70.04 69.51 69.77 69.30 69.47 68.47 68.95 69.72 69.75
61.41 58.28 60.49 62.74 62.96 61.54 63.72 60.36 61.82 65.87 66.88 66.20 66.51 66.54 67.22 68.04 68.74 67.85 68.47 68.05 68.98 67.89 66.69 68.68 69.78 71.13 70.68 70.44 69.66 70.12 69.88 71.43 70.71 70.53 70.45 71.26 70.62 70.35 70.61 69.95 69.95 69.77 68.78 68.00 68.94 69.50 69.80 69.53 69.41
58.72 57.94 51.92 59.91 63.74 62.94 60.98 53.81 63.19 65.96 65.37 64.34 65.61 66.38 67.11 67.75 68.28 69.01 69.44 69.37 67.90 68.80 67.34 69.13 71.32 70.74 69.77 69.34 69.85 70.30 70.88 70.73 70.44 70.33 70.60 70.97 70.87 70.94 70.56 70.21 70.44 71.12 70.53 70.36 69.68 68.58 67.22 66.91 66.96
54.18 50.93 53.20 57.16 62.58 61.80 58.20 55.07 62.94 65.47 65.04 63.80 64.52 65.25 66.38 66.78 67.89 69.01 69.58 69.79 66.63 67.24 68.82 68.97 70.04 69.92 69.90 69.89 71.13 70.70 71.43 71.06 71.09 70.29 70.70 70.88 70.77 71.48 71.26 71.13 71.73 71.81 71.07 69.75 69.69 69.46 68.76 67.20 66.77
49.41 50.21 55.05 56.38 59.71 61.75 58.66 58.44 61.66 64.14 64.07 63.70 64.10 64.76 65.48 66.21 67.12 68.88 69.05 69.54 66.35 69.33 70.13 69.86 70.63 70.09 70.12 71.04 71.86 71.01 71.01 71.07 70.85 69.28 69.30 69.69 70.85 70.97 70.96 69.14 69.45 69.27 69.87 69.57 69.23 69.23 68.67 68.15 67.49
52.23 51.79 54.11 57.25 60.82 60.26 57.88 58.12 60.88 62.72 63.43 62.77 62.84 63.09 63.46 64.27 67.15 68.82 67.51 68.45 67.59 69.48 69.62 70.13 70.11 69.81 70.17 69.30 68.67 69.32 70.44 70.92 69.61 68.24 69.51 69.27 69.67 70.53 69.54 68.44 68.69 71.07 68.96 68.42 69.16 69.73 68.44 68.11 67.86
52.02 51.83 52.86 57.38 60.72 58.53 57.62 57.13 57.94 60.08 61.50 63.25 63.23 63.34 63.66 63.65 64.66 65.89 66.44 66.91 66.63 66.34 68.39 68.83 70.19 69.93 70.08 69.44 68.69 70.62 70.42 71.19 72.01 70.91 70.27 70.31 70.76 70.81 70.46 69.72 70.13 72.34 71.92 69.91 70.27 70.57 69.21 69.10 68.69
48.56 49.63 51.93 54.78 58.76 58.30 57.17 52.87 56.02 59.41 59.38 60.50 63.22 65.02 64.99 64.34 64.53 65.02 66.05 65.93 66.58 67.31 68.16 69.01 70.48 70.42 69.34 71.06 71.71 72.10 72.31 71.99 71.36 71.94 71.67 72.40 72.90 72.02 71.76 71.86 72.12 71.68 70.82 70.21 70.09 70.40 69.19 66.71 67.14
44.95 53.25 55.12 56.83 54.30 48.96 55.03 45.41 50.22 55.43 56.80 58.21 60.98 63.15 64.94 64.64 65.82 66.04 66.70 66.15 66.47 67.77 70.13 70.13 71.30 70.01 70.25 70.21 68.89 70.09 69.54 68.89 70.07 69.68 71.43 72.29 73.62 72.88 72.83 72.58 72.07 71.25 70.36 68.76 68.76 70.95 69.77 67.54 65.25
49.02 53.45 53.54 57.01 51.61 51.09 52.06 47.07 49.27 52.80 53.80 55.83 59.34 60.98 65.14 65.36 65.61 66.14 66.89 67.25 67.94 68.07 69.85 70.43 71.56 70.96 71.16 68.84 67.38 65.76 69.05 69.43 70.64 69.87 69.08 70.41 70.41 70.53 70.91 69.50 68.67 67.86 68.08 67.90 65.13 65.84 67.81 68.44 68.15
52.36 49.62 49.73 49.60 49.81 43.30 48.44 49.97 46.06 50.35 54.84 56.29 60.25 62.52 63.56 65.08 65.61 66.54 67.74 68.01 64.97 66.92 68.46 67.57 69.04 69.88 71.72 69.11 66.02 65.80 67.17 67.68 67.54 67.43 66.87 68.13 66.68 66.28 66.27 65.88 65.29 65.00 63.71 63.09 62.97 64.71 66.51 67.09 68.35
46.43 41.40 37.73 38.25 41.43 43.02 47.39 46.77 50.65 52.24 56.68 58.88 60.36 62.61 63.36 63.57 65.28 65.65 66.09 66.38 65.41 65.88 66.76 66.64 65.96 67.54 70.66 69.90 67.52 68.19 68.31 67.63 67.21 66.67 67.40 65.42 63.85 63.09 62.95 63.84 63.83 62.59 61.94 62.11 63.04 63.01 62.00 62.37 65.55
42.54 41.96 38.59 34.98 37.10 40.25 44.23 43.93 49.16 56.49 58.28 59.43 60.74 62.65 62.71 62.54 64.90 65.59 66.46 66.80 66.71 65.52 65.81 66.33 67.11 68.49 68.99 68.85 67.88 67.14 68.60 68.26 67.09 66.08 66.05 63.35 62.37 62.16 63.06 61.81 61.03 60.15 60.07 60.04 60.39 60.56 60.93 60.31 60.16
42.02 43.08 43.41 39.35 36.63 39.05 43.44 48.19 52.73 54.78 57.02 58.54 59.08 60.88 61.38 61.63 65.22 65.50 66.62 66.91 66.14 66.13 67.39 69.07 69.41 67.90 68.92 67.42 68.39 69.02 66.25 64.60 63.13 62.78 62.59 62.00 62.50 63.03 61.29 60.22 59.83 59.78 58.90 58.69 58.75 58.78 58.82 59.52 58.46
43.49 44.56 39.88 37.48 35.19 34.23 38.14 43.15 45.88 50.80 54.75 57.28 58.54 59.27 61.40 61.48 64.15 65.98 66.11 66.21 65.74 67.50 71.34 71.18 69.62 69.04 69.41 69.25 68.87 66.61 64.52 63.26 62.53 62.24 61.64 61.86 61.49 60.54 60.16 58.07 56.40 55.58 55.76 56.92 57.14 57.24 57.16 57.82 57.95
41.09 40.38 40.23 38.71 37.61 35.63 34.58 39.42 49.40 51.52 54.83 55.92 58.80 60.30 59.73 62.24 62.18 65.63 66.05 66.79 67.11 70.38 71.49 70.36 69.61 69.66 68.78 69.03 67.16 64.17 62.91 62.82 62.38 61.44 61.35 60.42 59.43 58.64 56.44 52.44 51.02 52.96 54.87 56.10 56.62 56.68 57.36 56.46 54.73
41.55 41.68 39.80 37.03 36.04 35.23 35.94 39.31 47.13 53.26 54.39 57.09 58.20 57.98 59.96 62.92 63.73 65.09 67.03 69.58 69.82 70.44 70.99 70.05 69.71 69.51 68.69 67.26 64.31 63.02 62.46 61.79 60.61 60.42 59.53 58.77 57.90 56.18 51.50 49.10 50.41 52.51 54.09 55.09 55.31 54.69 55.69 55.09 53.56
MSLP
1006.47 1006.94 1007.42 1007.90 1008.42 1008.02 1008.28 1007.98 1007.80 1008.15 1008.59 1008.77 1008.89 1009.22 1010.05 1010.67 1011.37 1012.73 1012.63 1012.60 1012.41 1012.71 1012.69 1012.79 1012.88 1013.03 1013.27 1013.38 1013.52 1013.60 1013.78 1013.97 1014.09 1013.99 1014.11 1014.16 1014.38 1014.49 1014.61 1014.86 1014.78 1014.87 1014.93 1015.06 1015.14 1015.24 1015.32 1015.53 1015.40
1006.63 1007.25 1007.55 1007.56 1007.96 1008.14 1008.12 1007.63 1007.34 1007.77 1008.02 1008.52 1008.73 1009.24 1009.95 1011.30 1011.77 1012.23 1012.46 1012.49 1012.36 1012.65 1012.79 1012.88 1013.01 1013.18 1013.38 1013.57 1013.65 1013.85 1014.06 1014.12 1014.19 1014.15 1014.35 1014.46 1014.59 1014.65 1014.81 1014.71 1014.76 1014.81 1015.07 1015.16 1015.24 1015.43 1015.48 1015.52 1015.52
1006.85 1006.74 1007.15 1007.20 1007.41 1007.76 1007.67 1007.26 1007.27 1007.62 1007.79 1008.32 1008.76 1009.31 1010.31 1011.57 1011.98 1012.03 1012.04 1012.40 1012.60 1012.87 1012.94 1012.99 1013.16 1013.27 1013.47 1013.69 1013.80 1013.95 1014.12 1014.22 1014.31 1014.33 1014.44 1014.52 1014.62 1014.72 1014.87 1014.82 1014.85 1014.99 1015.16 1015.16 1015.41 1015.46 1015.54 1015.67 1015.71
1006.53 1006.70 1006.88 1007.00 1007.19 1006.73 1006.90 1007.48 1007.22 1007.41 1007.95 1008.02 1008.93 1010.11 1010.89 1011.35 1011.74 1011.95 1012.24 1012.58 1012.84 1013.14 1013.07 1012.98 1013.30 1013.49 1013.61 1013.78 1014.01 1014.06 1014.20 1014.32 1014.41 1014.45 1014.57 1014.66 1014.75 1014.93 1015.04 1015.01 1015.10 1015.14 1015.26 1015.40 1015.52 1015.72 1015.74 1015.75 1015.87
1006.37 1006.20 1006.77 1007.03 1006.86 1006.79 1007.09 1006.80 1007.24 1007.29 1007.55 1008.23 1008.93 1010.59 1011.35 1011.82 1011.76 1012.18 1012.40 1012.73 1012.94 1013.32 1013.21 1013.22 1013.45 1013.58 1013.80 1013.88 1014.07 1014.23 1014.30 1014.51 1014.68 1014.62 1014.68 1014.80 1014.85 1015.08 1015.15 1015.11 1015.20 1015.27 1015.46 1015.59 1015.70 1015.96 1015.91 1015.96 1016.04
1006.04 1006.27 1006.76 1007.03 1006.88 1007.03 1006.85 1006.79 1006.97 1007.24 1007.87 1008.64 1009.53 1010.63 1012.18 1012.20 1012.11 1012.41 1012.56 1012.73 1012.82 1013.17 1013.29 1013.38 1013.59 1013.76 1014.03 1014.16 1014.23 1014.44 1014.59 1014.72 1014.83 1014.77 1014.82 1014.87 1015.04 1015.14 1015.26 1015.31 1015.34 1015.36 1015.45 1015.68 1015.85 1016.01 1016.13 1016.17 1016.22
1005.69 1006.09 1006.63 1006.41 1006.83 1006.90 1006.76 1006.72 1007.07 1007.16 1007.81 1008.60 1009.22 1010.88 1012.35 1012.56 1012.47 1012.58 1012.76 1012.99 1013.18 1013.26 1013.49 1013.68 1013.79 1013.82 1013.98 1014.29 1014.36 1014.46 1014.64 1014.83 1014.94 1015.07 1015.12 1015.00 1015.17 1015.31 1015.44 1015.51 1015.51 1015.49 1015.62 1015.77 1015.94 1016.12 1016.23 1016.28 1016.28
1004.95 1005.33 1005.96 1005.97 1006.22 1006.35 1006.46 1006.72 1007.17 1007.26 1007.88 1008.43 1009.10 1010.70 1011.95 1012.03 1012.35 1012.73 1012.98 1013.24 1013.46 1013.56 1013.58 1013.72 1013.77 1013.92 1014.14 1014.27 1014.30 1014.49 1014.67 1014.77 1015.01 1015.18 1015.20 1015.15 1015.18 1015.27 1015.37 1015.50 1015.55 1015.62 1015.85 1015.82 1015.96 1016.22 1016.23 1016.36 1016.47
1004.08 1005.14 1005.32 1004.95 1005.21 1005.48 1006.02 1006.53 1007.05 1007.35 1007.87 1008.24 1008.98 1009.83 1010.54 1011.53 1012.27 1012.66 1013.08 1013.48 1013.75 1013.92 1013.92 1013.77 1013.88 1014.01 1014.20 1014.32 1014.39 1014.51 1014.67 1014.75 1014.91 1015.15 1015.21 1015.16 1015.43 1015.43 1015.68 1015.77 1015.79 1015.80 1015.85 1015.91 1015.98 1016.12 1016.29 1016.42 1016.48
1003.70 1004.61 1004.13 1003.65 1004.08 1004.67 1005.28 1005.92 1006.65 1007.53 1008.18 1008.91 1009.29 1009.91 1010.87 1011.61 1012.18 1012.67 1013.10 1013.37 1013.67 1013.87 1013.96 1013.94 1013.95 1013.91 1014.09 1014.12 1014.37 1014.55 1014.80 1014.94 1015.03 1015.22 1015.35 1015.43 1015.55 1015.56 1015.65 1015.71 1015.79 1015.91 1015.88 1015.97 1016.02 1016.02 1016.16 1016.40 1016.65
1002.89 1003.28 1003.12 1003.37 1003.45 1003.95 1005.13 1005.81 1006.27 1007.53 1008.32 1008.61 1009.07 1009.93 1010.97 1011.56 1011.86 1012.30 1012.69 1013.05 1013.23 1013.41 1013.76 1013.91 1013.91 1014.04 1014.25 1014.38 1014.48 1014.70 1014.83 1014.95 1015.04 1015.08 1015.25 1015.47 1015.62 1015.70 1015.71 1015.85 1015.82 1016.01 1015.86 1016.03 1016.08 1016.22 1016.25 1016.38 1016.54
1002.75 1002.73 1002.67 1003.07 1003.45 1004.07 1004.93 1005.96 1006.74 1007.27 1007.47 1008.05 1009.14 1009.55 1010.49 1011.26 1011.66 1011.73 1012.09 1012.49 1012.79 1013.12 1013.30 1013.46 1013.65 1014.04 1014.24 1014.38 1014.56 1014.79 1014.93 1014.77 1014.79 1014.94 1015.21 1015.49 1015.72 1015.81 1015.87 1015.98 1016.00 1016.10 1016.07 1016.25 1016.48 1016.67 1016.52 1016.61 1016.57
1002.82 1003.00 1002.52 1002.92 1003.54 1004.29 1004.79 1005.74 1006.35 1007.30 1007.78 1008.83 1009.67 1010.16 1010.51 1010.94 1011.25 1011.57 1011.69 1012.24 1012.54 1012.77 1012.90 1013.12 1013.43 1013.65 1013.89 1014.23 1014.40 1014.58 1014.62 1014.73 1014.74 1014.93 1014.95 1015.18 1015.37 1015.75 1015.74 1015.81 1015.95 1016.08 1016.12 1016.20 1016.42 1016.55 1016.53 1016.62 1016.65
1003.19 1003.42 1003.44 1003.48 1003.91 1004.51 1005.35 1006.32 1006.43 1007.81 1008.08 1009.07 1009.73 1010.24 1010.49 1010.48 1010.65 1011.07 1011.37 1011.48 1012.02 1012.41 1012.71 1012.99 1013.10 1013.22 1013.53 1013.94 1014.20 1014.44 1014.56 1014.64 1014.88 1014.87 1014.86 1015.08 1015.14 1015.43 1015.37 1015.50 1015.74 1016.06 1016.07 1016.13 1016.17 1016.49 1016.50 1016.50 1016.57
1003.55 1004.18 1004.44 1004.37 1004.20 1004.71 1005.44 1006.85 1007.57 1007.95 1008.60 1009.04 1009.53 1009.80 1009.97 1010.08 1010.44 1010.39 1010.37 1010.90 1011.27 1011.79 1012.19 1012.40 1012.85 1013.26 1013.44 1013.76 1013.97 1014.22 1014.24 1014.31 1014.40 1014.48 1014.60 1014.94 1015.07 1015.32 1015.45 1015.67 1015.70 1015.77 1015.95 1016.03 1016.39 1016.27 1016.33 1016.34 1016.18
1004.27 1004.68 1005.33 1005.02 1004.95 1004.98 1005.61 1007.23 1007.94 1008.28 1008.54 1009.15 1009.40 1009.38 1009.28 1009.41 1009.49 1009.64 1010.03 1010.45 1010.85 1011.33 1011.64 1012.04 1012.50 1012.89 1013.28 1013.51 1013.75 1014.03 1014.28 1014.10 1014.10 1014.29 1014.61 1014.79 1014.85 1014.91 1015.17 1015.45 1015.49 1015.36 1015.58 1015.72 1016.04 1016.06 1016.16 1016.24 1016.25
1005.07 1005.17 1005.23 1005.18 1005.05 1005.32 1005.75 1007.48 1007.78 1008.17 1008.20 1008.29 1008.46 1008.59 1008.66 1008.92 1008.94 1009.10 1009.26 1009.78 1010.19 1010.58 1011.18 1011.78 1012.09 1012.47 1012.93 1013.32 1013.58 1013.75 1013.79 1014.00 1014.13 1014.35 1014.45 1014.51 1014.71 1014.83 1015.01 1015.22 1015.22 1015.27 1015.44 1015.74 1015.94 1016.07 1016.08 1015.99 1016.02
1005.21 1005.58 1005.33 1005.01 1004.70 1004.89 1006.05 1006.80 1007.10 1007.28 1007.39 1007.61 1007.99 1008.23 1007.95 1008.02 1008.01 1007.96 1008.54 1009.28 1009.94 1010.42 1010.96 1011.36 1011.91 1012.41 1012.74 1013.20 1013.70 1014.06 1014.04 1013.89 1014.04 1014.20 1014.21 1014.35 1014.44 1014.49 1014.80 1015.20 1015.33 1015.41 1015.58 1015.77 1015.93 1015.95 1015.86 1015.91 1015.74
1004.44 1004.80 1004.74 1004.31 1004.10 1005.12 1005.63 1006.25 1006.58 1006.63 1006.83 1007.29 1007.55 1007.53 1007.49 1007.34 1006.93 1007.55 1008.45 1008.96 1009.77 1010.22 1010.73 1011.09 1011.69 1012.20 1013.06 1013.47 1013.79 1014.19 1014.21 1014.13 1014.09 1014.20 1014.15 1014.16 1014.09 1014.38 1014.68 1015.02 1015.27 1015.18 1015.54 1015.60 1015.63 1015.63 1015.73 1015.67 1015.60
1004.19 1004.45 1004.45 1004.37 1004.40 1004.96 1005.88 1006.22 1006.18 1006.14 1005.76 1006.08 1006.27 1006.54 1006.74 1006.85 1006.95 1007.43 1008.19 1008.79 1009.59 1009.70 1010.19 1011.08 1011.61 1012.27 1012.75 1013.39 1013.59 1013.81 1013.80 1013.84 1013.85 1013.76 1014.00 1014.04 1014.15 1014.41 1014.67 1014.93 1014.93 1015.04 1015.09 1015.24 1015.26 1015.24 1015.45 1015.39 1015.39
1003.64 1003.71 1003.83 1004.34 1004.64 1005.33 1005.90 1006.29 1006.33 1006.00 1005.90 1005.67 1005.80 1005.99 1005.88 1005.98 1006.33 1007.21 1007.92 1008.51 1009.15 1009.71 1010.13 1010.59 1011.20 1011.98 1012.46 1012.80 1013.12 1013.48 1013.65 1013.45 1013.80 1013.73 1013.94 1014.01 1014.06 1014.29 1014.41 1014.51 1014.44 1014.78 1014.95 1015.08 1015.07 1015.07 1015.08 1015.39 1015.25
1003.18 1002.67 1003.28 1004.06 1004.91 1005.81 1006.05 1006.70 1006.06 1006.06 1005.84 1005.62 1005.29 1005.28 1004.89 1005.49 1005.80 1006.57 1007.48 1008.24 1008.78 1009.21 1009.72 1010.34 1010.76 1011.50 1012.14 1012.60 1013.10 1013.37 1013.43 1013.64 1013.72 1013.92 1014.14 1013.95 1013.83 1014.04 1014.24 1014.24 1014.26 1014.73 1014.90 1015.30 1015.29 1015.34 1015.26 1015.36 1015.42
1002.32 1002.76 1002.93 1003.63 1004.80 1005.86 1006.80 1007.52 1005.71 1005.57 1005.10 1004.61 1004.21 1004.25 1004.43 1004.49 1005.34 1006.06 1006.49 1007.23 1007.94 1009.00 1009.54 1010.08 1010.73 1011.31 1011.80 1012.33 1012.86 1013.49 1013.56 1013.41 1013.71 1014.19 1014.29 1014.41 1014.34 1014.41 1014.59 1014.77 1014.90 1015.03 1015.00 1015.28 1015.49 1015.59 1015.51 1015.33 1015.34
1002.31 1002.94 1003.43 1003.96 1005.20 1006.32 1006.15 1006.86 1005.93 1005.23 1003.47 1003.55 1003.42 1003.32 1003.87 1004.43 1004.77 1005.52 1006.33 1007.22 1008.10 1008.72 1009.30 1010.09 1010.87 1011.47 1011.76 1012.29 1012.94 1013.21 1013.42 1013.59 1013.99 1014.40 1014.72 1014.87 1015.08 1015.23 1015.17 1015.22 1015.33 1015.48 1015.52 1015.50 1015.70 1015.69 1015.65 1015.56 1015.45
1002.46 1003.72 1004.65 1005.77 1006.38 1006.17 1005.72 1006.70 1004.55 1003.31 1002.32 1002.13 1002.05 1002.57 1003.39 1004.03 1004.71 1005.56 1006.46 1007.25 1007.98 1008.54 1009.22 1009.94 1010.71 1011.30 1011.71 1012.20 1012.69 1012.99 1013.24 1013.60 1013.87 1014.30 1014.87 1015.41 1015.81 1016.01 1015.96 1015.93 1015.96 1016.08 1016.01 1015.81 1015.88 1015.93 1015.89 1015.79 1015.73
1002.54 1003.65 1004.93 1005.63 1006.33 1006.39 1006.54 1005.57 1003.20 1002.63 1001.63 1001.63 1001.70 1002.17 1002.90 1003.71 1004.31 1004.85 1005.56 1006.56 1007.38 1008.19 1009.06 1009.72 1010.42 1011.19 1011.51 1012.02 1012.49 1012.92 1013.20 1013.69 1014.21 1014.58 1015.01 1015.64 1016.06 1016.25 1016.26 1016.31 1016.35 1016.38 1016.16 1016.16 1016.19 1016.31 1016.35 1016.30 1016.29
1002.50 1003.42 1003.98 1005.44 1006.80 1006.74 1005.80 1004.48 1002.56 1002.17 1001.81 1001.92 1002.10 1002.51 1002.92 1003.27 1003.89 1004.45 1005.36 1006.20 1007.06 1007.80 1008.72 1009.53 1010.18 1011.26 1011.55 1012.11 1012.49 1012.93 1013.46 1013.96 1014.63 1014.97 1015.38 1015.87 1016.29 1016.53 1016.60 1016.43 1016.61 1016.53 1016.43 1016.48 1016.56 1016.67 1016.73 1016.82 1016.93
1001.85 1002.69 1004.11 1005.52 1006.91 1007.17 1006.09 1005.14 1003.33 1002.17 1001.75 1001.91 1002.36 1002.20 1002.43 1003.12 1003.95 1004.55 1005.31 1006.18 1006.99 1007.73 1008.57 1009.37 1010.21 1011.03 1011.56 1012.03 1012.61 1013.14 1013.60 1014.20 1014.73 1015.20 1015.81 1016.18 1016.56 1016.75 1016.91 1017.11 1017.16 1017.12 1017.08 1017.02 1016.92 1016.96 1017.06 1017.03 1017.31
1002.13 1002.73 1004.13 1005.48 1006.19 1006.63 1006.01 1004.21 1001.90 1001.25 1000.52 1001.06 1001.27 1001.66 1002.09 1002.60 1003.33 1004.14 1005.14 1005.91 1006.66 1007.52 1008.45 1009.30 1010.38 1011.02 1011.69 1012.13 1012.70 1013.27 1014.10 1014.71 1015.11 1015.63 1016.13 1016.57 1016.95 1017.25 1017.50 1017.69 1017.72 1017.74 1017.60 1017.52 1017.48 1017.50 1017.68 1017.74 1017.79
1001.45 1001.99 1003.27 1005.17 1006.08 1006.13 1005.33 1002.98 1000.51 999.94 999.93 1000.56 1000.96 1001.36 1001.65 1002.21 1003.27 1004.03 1004.84 1005.25 1006.14 1007.26 1008.25 1009.04 1010.11 1010.92 1011.68 1012.30 1012.96 1013.59 1014.27 1015.05 1015.65 1016.19 1016.55 1016.85 1017.31 1017.70 1017.89 1018.05 1018.07 1018.13 1018.19 1017.94 1018.02 1018.02 1018.00 1018.09 1018.14
Wind_Speed
15 10 4 3 3 5 2 2 3 4 5 1 9 3 5 6 2 3 2 3 10 5 4 5 8 11 11 11 12 12 13 13 12 13 12 12 14 13 12 12 13 13 10 9 10 9 9 11 12
9 11 1 0 5 4 1 2 2 3 6 11 6 3 5 4 3 7 5 6 9 6 4 5 10 11 11 10 11 11 11 11 11 11 10 10 12 12 11 11 13 12 10 10 11 11 11 12 12
11 5 0 2 3 3 3 1 1 7 11 13 4 5 4 3 8 5 5 11 8 5 5 6 11 12 11 10 10 10 10 10 9 10 9 10 10 11 10 10 11 11 11 10 11 10 9 10 11
4 1 1 5 5 2 5 4 7 12 8 4 10 7 5 3 5 5 12 11 9 5 5 9 13 13 11 11 9 9 9 8 8 9 9 8 10 10 9 10 10 11 10 10 11 10 9 9 10
2 2 4 3 4 3 13 13 6 7 6 11 3 3 4 4 9 11 11 10 9 6 5 7 12 13 12 11 10 9 9 7 6 8 8 9 9 10 10 9 9 10 11 9 10 10 9 9 9
2 2 5 5 7 6 5 10 6 7 7 8 8 6 2 2 14 9 8 7 8 9 6 6 13 13 11 10 9 7 7 7 6 6 8 8 8 9 8 10 9 9 9 10 9 9 8 8 8
2 4 2 8 7 4 5 5 3 7 9 6 8 5 2 3 7 6 5 5 6 6 5 4 5 9 11 9 8 8 6 6 5 4 6 5 8 7 8 7 8 9 10 9 9 8 8 7 7
2 3 0 3 6 4 9 3 5 5 5 7 11 5 7 8 8 6 6 5 6 5 5 5 6 5 5 5 10 9 8 6 4 4 5 7 5 7 8 8 9 9 9 9 8 7 6 7 6
4 5 2 5 6 6 10 5 2 6 8 3 3 6 9 15 10 7 5 4 4 3 5 5 5 5 5 4 5 9 7 6 5 4 6 5 1 1 1 4 7 9 9 9 9 8 7 6 5
4 4 6 6 6 7 13 10 10 6 4 4 7 13 16 14 11 10 6 7 6 5 6 5 5 6 6 5 5 4 3 1 1 2 3 1 3 3 4 5 8 9 9 9 9 9 9 7 1
3 6 4 3 5 9 10 12 5 12 2 6 18 20 17 12 12 11 9 8 11 6 5 7 6 4 4 2 2 1 2 3 3 5 4 3 1 2 1 1 2 2 7 2 5 4 2 3 2
4 4 3 6 6 4 7 10 8 2 4 11 15 20 18 15 13 13 11 9 10 8 9 7 7 6 6 3 3 3 3 3 3 3 4 3 2 3 3 2 3 3 2 3 1 1 4 3 2
4 2 6 9 8 7 8 10 8 5 12 13 13 15 15 12 12 10 11 7 6 9 10 9 9 8 6 6 4 3 4 4 4 4 4 3 4 3 3 3 2 3 2 3 3 3 3 3 4
6 4 5 6 11 6 11 11 5 6 15 14 14 14 12 13 13 8 8 10 10 10 9 8 9 7 7 7 6 4 3 3 3 3 4 5 4 3 4 3 3 3 3 3 3 3 4 3 3
6 5 5 4 3 4 6 4 4 14 15 17 15 14 14 15 12 14 12 10 11 8 7 9 7 6 7 8 6 4 3 5 5 4 2 4 4 4 3 3 4 3 3 5 3 4 4 4 4
3 5 3 3 1 2 6 2 11 13 14 14 15 14 15 16 16 14 12 10 8 8 9 8 8 8 7 6 5 4 4 2 2 2 2 2 4 6 5 3 3 3 3 2 2 2 3 4 4
6 2 2 4 2 3 4 4 9 14 15 16 17 17 16 15 16 15 14 12 9 10 10 9 8 9 7 5 4 5 5 4 3 3 2 3 5 4 3 3 2 3 2 2 2 3 3 2 3
4 3 5 2 6 5 3 6 16 18 17 18 16 15 16 16 19 16 15 11 7 8 8 11 9 7 7 5 4 1 2 2 2 3 4 4 2 4 4 2 2 2 2 2 2 3 2 3 4
2 4 5 7 7 2 7 9 15 18 16 14 11 12 15 16 18 15 11 11 9 7 8 12 11 10 8 3 3 1 2 1 1 3 4 4 3 3 4 3 2 3 3 3 3 2 3 3 2
5 4 6 3 4 0 5 5 8 10 17 15 15 14 13 10 9 10 10 11 11 10 10 9 11 11 9 3 3 3 3 2 2 3 4 5 4 3 4 4 4 5 3 4 4 4 3 2 3
3 5 4 3 4 1 3 5 6 7 7 7 6 10 13 15 16 13 13 15 13 12 15 13 12 11 7 8 3 2 3 2 1 1 2 2 4 5 5 5 3 3 0 2 2 3 1 2 2
7 4 8 7 5 8 4 8 6 7 9 10 13 9 15 14 16 14 16 15 16 15 12 13 11 12 8 8 5 5 5 3 2 1 1 3 4 4 1 1 2 4 3 3 3 3 2 0 3
13 3 11 14 6 5 1 3 10 0 8 10 15 16 12 16 16 16 18 18 16 11 11 8 10 11 10 9 7 5 3 3 2 2 3 5 5 5 5 6 5 5 4 4 5 4 4 2 2
5 4 5 5 5 2 7 10 8 6 17 6 13 17 13 12 16 15 13 11 8 8 7 7 8 8 10 9 8 8 7 4 2 1 2 3 4 3 5 6 5 4 4 4 2 2 3 3 2
3 7 4 3 1 6 4 7 15 6 8 11 17 14 9 10 13 14 14 12 10 11 9 8 7 6 6 7 7 7 6 5 5 3 3 4 3 2 4 4 5 4 4 5 4 4 5 4 3
6 9 7 5 4 5 6 7 10 5 8 6 3 7 7 8 12 17 18 16 13 13 10 8 9 7 8 7 7 6 6 4 2 4 5 4 3 3 4 5 5 5 5 5 5 3 3 4 4
1 4 5 7 4 2 3 8 9 1 7 4 6 6 7 8 12 16 14 15 13 13 12 10 10 6 8 7 6 7 6 7 6 7 6 4 5 4 5 5 5 5 6 5 4 4 5 5 5
8 6 2 3 3 5 5 5 7 6 10 8 8 11 11 7 9 11 13 13 11 12 11 11 10 12 8 8 8 8 8 7 7 7 6 6 5 5 6 6 6 6 6 5 5 4 4 6 4
3 1 3 6 6 7 4 9 10 11 14 14 14 12 11 12 8 12 12 12 13 13 13 13 12 11 9 9 9 10 8 8 8 7 6 6 5 5 6 6 6 6 6 5 6 6 5 6 5
6 8 8 7 6 3 3 10 5 12 7 6 8 8 8 12 10 10 14 16 16 15 14 14 12 12 10 10 11 11 10 8 8 6 6 6 6 6 6 5 6 6 5 5 6 6 4 6 6
Wind_Direction
136 131 133 153 64 71 351 356 52 111 129 124 148 102 98 25 51 169 151 191 118 132 160 142 143 130 123 120 116 116 123 124 125 119 120 126 129 134 133 144 144 142 144 134 119 122 120 120 120
139 135 143 102 72 62 318 264 248 148 129 144 93 115 45 75 76 135 125 151 132 140 137 142 154 144 135 129 124 124 125 124 126 122 123 125 123 123 130 130 133 136 131 135 125 125 131 127 131
159 165 123 88 100 131 160 209 29 80 127 144 118 57 77 105 123 147 121 134 123 121 132 154 148 144 143 141 138 135 132 123 122 123 129 126 123 124 129 134 130 130 134 139 133 127 128 131 135
170 215 335 62 83 340 140 97 124 120 132 161 106 71 81 156 138 141 140 139 127 139 154 151 151 149 153 152 151 138 130 132 132 133 137 131 139 137 140 141 145 139 142 131 131 128 137 133 134
263 96 41 72 69 53 110 187 168 145 114 128 108 91 59 9 118 134 137 137 136 153 155 149 161 163 166 159 159 153 138 134 139 144 149 147 141 140 146 144 147 138 144 145 131 136 138 133 126
321 86 50 82 99 99 127 179 159 89 94 117 92 88 40 130 135 155 143 148 151 156 162 158 161 162 165 169 162 157 148 144 157 154 160 159 151 151 151 154 154 149 150 149 145 139 140 134 128
178 88 284 97 105 137 149 115 289 126 123 93 138 85 84 177 152 156 138 140 145 154 146 153 154 160 162 173 169 175 171 167 155 160 158 163 163 161 160 169 167 167 161 164 163 158 151 148 141
182 92 218 101 176 183 147 103 131 78 62 97 144 162 173 193 162 130 125 143 152 159 158 166 167 161 162 184 184 188 184 173 175 181 180 178 186 188 189 176 180 176 179 168 179 180 184 168 154
169 65 206 143 163 143 149 136 190 91 127 109 105 134 147 162 148 130 123 108 120 164 166 178 181 170 174 187 205 196 190 195 190 208 212 211 152 109 32 186 198 192 185 187 196 203 211 221 216
139 124 211 188 148 149 164 158 134 124 120 60 79 103 138 153 158 162 166 169 171 178 197 191 197 193 174 190 196 172 204 161 134 232 257 198 201 195 205 209 205 208 199 202 211 220 221 228 238
147 169 170 129 145 140 142 133 100 137 201 212 154 147 155 163 174 176 189 186 190 186 188 191 206 184 188 217 178 171 181 186 209 222 230 229 208 286 277 231 253 83 221 244 220 237 248 231 199
98 76 134 140 142 106 122 121 128 79 207 129 150 153 159 173 186 186 196 187 174 182 195 194 193 185 193 188 187 197 222 209 216 214 197 204 208 256 254 224 230 209 207 223 224 269 264 281 267
35 39 74 95 113 112 94 140 135 120 122 125 140 160 174 184 189 198 194 199 186 201 196 197 188 189 187 195 194 205 221 219 211 218 210 208 213 213 231 226 220 234 230 219 210 235 243 234 240
62 73 90 87 90 63 107 137 105 143 133 143 161 178 187 195 201 198 195 185 193 207 209 203 198 194 175 198 193 218 226 243 232 220 217 205 220 203 215 205 209 241 221 242 220 240 244 232 230
86 64 33 16 106 95 112 55 134 152 152 159 175 186 195 205 200 215 212 197 192 200 195 196 191 173 191 199 200 233 213 198 205 208 246 229 217 218 262 203 247 235 212 231 235 222 241 243 238
77 70 360 280 227 321 100 45 139 163 159 180 184 196 203 209 207 211 213 219 195 186 188 177 196 190 185 187 189 210 222 226 205 146 218 226 204 197 202 217 247 258 227 216 231 251 243 238 243
357 231 230 238 305 137 108 152 166 178 184 191 197 199 206 209 214 216 210 204 189 191 190 184 184 179 174 178 193 195 179 170 185 173 218 233 192 186 163 181 233 265 262 255 198 264 236 290 254
196 191 265 247 216 151 114 162 169 188 196 205 203 214 207 205 219 203 198 196 171 172 182 190 182 174 169 162 166 181 188 175 160 192 187 171 157 176 163 177 222 238 213 251 205 224 257 254 261
194 172 224 271 167 146 188 156 177 193 210 214 211 213 205 212 213 206 171 179 139 159 171 193 178 177 172 161 139 155 185 183 178 195 231 206 189 196 180 197 225 226 222 247 251 239 240 268 231
210 189 245 309 108 117 176 206 208 195 211 211 212 215 216 207 196 188 163 168 178 178 194 186 186 175 177 147 126 168 177 193 185 201 228 249 230 231 217 218 221 233 229 254 272 215 206 219 197
262 230 209 198 137 53 110 283 219 233 229 231 237 231 225 202 192 180 178 182 180 186 197 191 178 174 157 161 127 113 86 88 35 287 232 250 199 215 226 233 240 277 305 273 280 336 230 244 279
285 212 252 180 150 220 151 269 264 205 234 230 223 218 218 203 198 178 178 181 188 193 192 189 166 159 156 148 150 178 158 164 197 164 317 70 56 57 336 166 131 76 84 43 17 3 319 63 257
248 228 251 196 150 107 204 70 271 349 252 222 221 225 219 195 190 180 186 184 186 170 178 170 158 157 160 156 162 179 180 170 171 193 74 82 65 61 60 62 50 56 63 48 21 344 344 351 313
263 291 15 37 117 108 228 176 280 197 227 215 226 222 206 205 192 183 185 159 149 145 141 141 152 158 167 164 174 176 183 173 208 136 105 83 63 47 57 64 76 66 60 47 9 345 30 2 73
112 62 314 8 77 208 224 136 238 258 227 201 215 213 183 194 189 172 175 163 157 156 157 150 154 156 155 167 162 165 166 182 210 144 128 122 100 46 52 65 65 54 55 53 51 58 50 29 38
199 159 160 226 217 244 154 230 250 192 256 224 246 214 157 195 183 182 179 171 168 158 152 151 151 148 148 154 155 153 135 132 129 126 118 115 107 96 84 75 70 64 53 50 46 54 48 49 50
289 207 203 105 10 77 242 294 308 226 246 212 188 175 201 200 190 184 173 173 163 155 153 150 138 135 137 136 131 120 113 108 114 102 99 102 104 111 93 82 71 54 51 51 58 53 46 54 47
157 179 329 2 177 235 282 271 239 271 222 207 198 213 220 181 186 179 171 165 152 148 144 136 143 149 142 131 128 126 118 111 106 99 101 101 91 85 85 71 60 49 41 35 54 49 47 75 55
295 229 78 130 137 174 207 260 217 224 232 194 205 194 189 194 179 170 171 162 146 144 145 145 146 144 142 131 129 118 115 112 102 106 109 102 92 95 87 70 63 56 46 32 62 64 63 78 77
167 208 155 132 259 183 168 269 230 222 245 166 207 185 187 187 165 167 166 152 147 150 152 149 151 147 146 139 132 129 122 116 112 112 108 110 111 95 96 81 75 66 46 53 66 72 69 75 62